Location: ??????
(55.6130°N, 37.7882°E)
Time: 18:58:40
(UTC+00:00)

NOSS 3-4 (C) - Pass Details

Date: 14 April 2024
Orbit: 806 x 1406 km, 63.4° (Epoch: 23 May)

Event Time Altitude Azimuth Distance (km) Brightness Sun altitude
Exits shadow 00:17:06 25° 230° (SW) 1,645 4.1 -16.1°
Maximum altitude 00:20:31 89° 153° (SSE) 900 3.3 -15.8°
Drops below altitude 10° 00:26:53 10° 52° (NE) 2,750 7.2 -15.1°
Sets 00:29:39 0° 53° (NE) 3,793 8.5 -14.9°
